Location: Goettingen
(51.5300°N, 9.9433°E)
Time: 07:02:48
(UTC+01:00)

ISS - Pass Details

Date: 10 November 2018
Orbit: 401 x 409 km, 51.6° (Epoch: 21 November)

Event Time Altitude Azimuth Distance (km) Brightness Sun altitude
Exits shadow 05:58:02 27° 253° (WSW) 820 -2.8 -14.3°
Maximum altitude 05:59:14 38° 206° (SSW) 638 -3.0 -14.1°
Drops below altitude 10° 06:02:18 10° 137° (SE) 1,462 -0.2 -13.6°
Sets 06:04:28 0° 129° (SE) 2,321 1.2 -13.3°
